Oconto, WI

8:54 PM CST on December 13, 2019 (GMT -0600)
Oconto Municipal

Weather History for KOCQ - October, 2019

Change the Weather History Date:

Friday, October 4, 2019

  Actual Average Record
Temperature  
Mean Temperature 47 °F -  
Max Temperature 52 °F 63 °F 67 °F (2017)
Min Temperature 42 °F 37 °F 37 °F (2014)
Degree Days  
Heating Degree Days 18    
Moisture  
Dew Point 40 °F    
Average Humidity 78    
Maximum Humidity 89    
Minimum Humidity 66    
Precipitation  
Precipitation 0.00 in - - ()
Sea Level Pressure  
Sea Level Pressure 30.41 in    
Wind  
Wind Speed 6 mph (NNE)    
Max Wind Speed 10 mph    
Max Gust Speed -    
Visibility 10 miles    
Events      
Averages and records for this station are not official NWS values.
T = Trace of Precipitation, MM = Missing Value Source: NWS Daily Summary

Daily Weather History Graph

Daily Weather History Graph

Search for Another Location

Airport or City:

Astronomy

Oct. 04, 2019 Rise Set
Actual Time 6:53 AM CDT 6:26 PM CDT
Civil Twilight 6:23 AM CDT 6:56 PM CDT
Nautical Twilight 5:49 AM CDT 7:30 PM CDT
Astronomical Twilight 5:15 AM CDT 8:04 PM CDT
Moon 1:38 PM CDT (10/4) 10:41 PM CDT (10/4)
Length of Visible Light 12h 32m
Length of Day
11h 33m
Waxing Crescent, 40% of the Moon is Illuminated
Oct 4
Waxing Crescent
Oct 5
First Quarter
Oct 13
Full
Oct 21
Last Quarter
Oct 27
New

Hourly Weather History & Observations

Time (CDT) Temp. Windchill Dew Point Humidity Pressure Visibility Wind Dir Wind Speed Gust Speed Precip Events Conditions
12:15 AM 47.5 °F - 43.7 °F 87% 30.29 in 10.0 mi North 8.1 mph - N/A   Overcast
12:35 AM 46.8 °F - 40.8 °F 80% 30.30 in 10.0 mi North 10.4 mph - N/A   Mostly Cloudy
12:55 AM 45.9 °F 41.2 °F 40.1 °F 80% 30.31 in 10.0 mi North 9.2 mph - N/A   Scattered Clouds
1:15 AM 45.0 °F 41.8 °F 40.3 °F 84% 30.31 in 10.0 mi North 5.8 mph - N/A   Clear
1:35 AM 44.1 °F 41.5 °F 40.3 °F 87% 30.32 in 10.0 mi North 4.6 mph - N/A   Scattered Clouds
1:55 AM 44.1 °F 40.1 °F 40.6 °F 88% 30.34 in 10.0 mi NNW 6.9 mph - N/A   Mostly Cloudy
2:15 AM 43.2 °F 40.5 °F 39.7 °F 88% 30.34 in 10.0 mi North 4.6 mph - N/A   Scattered Clouds
2:35 AM 42.6 °F 39.0 °F 39.6 °F 89% 30.35 in 10.0 mi North 5.8 mph - N/A   Scattered Clouds
2:55 AM 42.8 °F 38.6 °F 38.8 °F 86% 30.36 in 10.0 mi North 6.9 mph - N/A   Scattered Clouds
3:15 AM 43.0 °F 38.8 °F 38.3 °F 84% 30.37 in 10.0 mi NNW 6.9 mph - N/A   Mostly Cloudy
3:35 AM 43.5 °F 40.1 °F 38.5 °F 82% 30.37 in 10.0 mi NNW 5.8 mph - N/A   Overcast
3:55 AM 43.7 °F 39.7 °F 38.1 °F 81% 30.38 in 10.0 mi NNW 6.9 mph - N/A   Overcast
4:15 AM 43.9 °F 39.9 °F 37.8 °F 79% 30.38 in 10.0 mi North 6.9 mph - N/A   Overcast
4:35 AM 42.8 °F 40.1 °F 37.9 °F 83% 30.39 in 10.0 mi North 4.6 mph - N/A   Mostly Cloudy
4:55 AM 42.3 °F 40.5 °F 38.3 °F 86% 30.39 in 10.0 mi NNW 3.5 mph - N/A   Mostly Cloudy
5:15 AM 42.8 °F 40.1 °F 38.3 °F 84% 30.40 in 10.0 mi NW 4.6 mph - N/A   Overcast
5:35 AM 43.0 °F - 38.5 °F 84% 30.41 in 10.0 mi Calm Calm - N/A   Overcast
5:55 AM 43.0 °F 41.3 °F 38.3 °F 84% 30.41 in 10.0 mi NNW 3.5 mph - N/A   Overcast
6:15 AM 43.2 °F 40.5 °F 38.1 °F 82% 30.42 in 10.0 mi NW 4.6 mph - N/A   Overcast
6:35 AM 43.2 °F 40.5 °F 38.3 °F 83% 30.42 in 10.0 mi NNW 4.6 mph - N/A   Overcast
6:55 AM 43.2 °F 40.5 °F 38.3 °F 83% 30.42 in 10.0 mi NNW 4.6 mph - N/A   Overcast
7:15 AM 43.3 °F 39.9 °F 38.3 °F 82% 30.43 in 10.0 mi NNW 5.8 mph - N/A   Overcast
7:35 AM 43.3 °F 39.2 °F 38.8 °F 84% 30.43 in 10.0 mi North 6.9 mph - N/A   Overcast
7:55 AM 43.5 °F 40.9 °F 38.7 °F 83% 30.44 in 10.0 mi North 4.6 mph - N/A   Overcast
8:15 AM 43.7 °F 41.1 °F 39.0 °F 84% 30.45 in 10.0 mi NNW 4.6 mph - N/A   Overcast
8:35 AM 43.9 °F 40.5 °F 39.6 °F 85% 30.45 in 10.0 mi North 5.8 mph - N/A   Overcast
8:55 AM 43.9 °F 40.5 °F 39.7 °F 85% 30.46 in 10.0 mi North 5.8 mph - N/A   Overcast
9:15 AM 44.1 °F 41.5 °F 39.9 °F 85% 30.47 in 10.0 mi NNW 4.6 mph - N/A   Overcast
9:35 AM 44.6 °F 43.1 °F 40.1 °F 84% 30.47 in 10.0 mi NNW 3.5 mph - N/A   Overcast
10:35 AM 45.7 °F 42.7 °F 40.8 °F 83% 30.48 in 10.0 mi North 5.8 mph - N/A   Overcast
10:55 AM 46.0 °F 43.9 °F 40.6 °F 81% 30.49 in 10.0 mi North 4.6 mph - N/A   Overcast
11:15 AM 46.4 °F 44.3 °F 40.6 °F 80% 30.48 in 10.0 mi North 4.6 mph - N/A   Overcast
11:35 AM 46.8 °F - 41.0 °F 80% 30.48 in 10.0 mi North 6.9 mph - N/A   Overcast
11:55 AM 47.3 °F - 41.2 °F 79% 30.48 in 10.0 mi North 3.5 mph - N/A   Overcast
12:15 PM 48.2 °F - 41.4 °F 77% 30.48 in 10.0 mi NNE 5.8 mph - N/A   Overcast
12:35 PM 48.2 °F - 41.2 °F 77% 30.48 in 10.0 mi North 5.8 mph - N/A   Overcast
12:55 PM 48.9 °F - 41.0 °F 74% 30.47 in 10.0 mi NNE 6.9 mph - N/A   Overcast
1:15 PM 49.3 °F - 40.8 °F 73% 30.47 in 10.0 mi NNE 8.1 mph - N/A   Overcast
1:35 PM 50.0 °F - 41.4 °F 72% 30.46 in 10.0 mi NNE 5.8 mph - N/A   Overcast
1:55 PM 50.7 °F - 41.4 °F 70% 30.45 in 10.0 mi East 6.9 mph - N/A   Overcast
2:15 PM 51.1 °F - 40.6 °F 67% 30.44 in 10.0 mi NE 9.2 mph - N/A   Mostly Cloudy
2:35 PM 52.0 °F - 41.0 °F 66% 30.44 in 10.0 mi NE 5.8 mph - N/A   Scattered Clouds
2:55 PM 51.8 °F - 41.2 °F 67% 30.44 in 10.0 mi NE 8.1 mph - N/A   Mostly Cloudy
3:15 PM 51.8 °F - 40.6 °F 66% 30.43 in 10.0 mi ENE 4.6 mph - N/A   Overcast
3:35 PM 51.3 °F - 40.3 °F 66% 30.43 in 10.0 mi ENE 4.6 mph - N/A   Overcast
3:55 PM 51.1 °F - 40.6 °F 67% 30.43 in 10.0 mi East 6.9 mph - N/A   Overcast
4:15 PM 51.1 °F - 40.8 °F 68% 30.43 in 10.0 mi East 6.9 mph - N/A   Overcast
4:35 PM 50.5 °F - 41.4 °F 71% 30.42 in 10.0 mi ENE 5.8 mph - N/A   Overcast
4:55 PM 50.4 °F - 41.2 °F 71% 30.42 in 10.0 mi ENE 4.6 mph - N/A   Overcast
5:15 PM 50.9 °F - 41.4 °F 70% 30.42 in 10.0 mi NE 5.8 mph - N/A   Overcast
5:35 PM 49.6 °F - 41.0 °F 72% 30.42 in 10.0 mi ENE 5.8 mph - N/A   Mostly Cloudy
5:55 PM 49.1 °F - 41.0 °F 74% 30.41 in 10.0 mi NE 3.5 mph - N/A   Mostly Cloudy
6:15 PM 48.2 °F - 41.0 °F 76% 30.41 in 10.0 mi NE 4.6 mph - N/A   Scattered Clouds
6:35 PM 48.2 °F - 41.0 °F 76% 30.41 in 10.0 mi NE 5.8 mph - N/A   Mostly Cloudy
6:55 PM 47.7 °F - 41.2 °F 78% 30.40 in 10.0 mi NE 5.8 mph - N/A   Overcast
7:15 PM 47.5 °F - 41.4 °F 79% 30.40 in 10.0 mi NNE 3.5 mph - N/A   Overcast
7:35 PM 47.5 °F - 41.7 °F 80% 30.39 in 10.0 mi Calm Calm - N/A   Overcast
7:55 PM 48.2 °F - 41.4 °F 77% 30.39 in 10.0 mi East 4.6 mph - N/A   Overcast
8:15 PM 49.3 °F - 40.8 °F 73% 30.39 in 10.0 mi East 5.8 mph - N/A   Overcast
8:35 PM 49.6 °F - 39.2 °F 67% 30.39 in 10.0 mi ESE 5.8 mph - N/A   Overcast
8:55 PM 49.5 °F - 40.3 °F 71% 30.39 in 10.0 mi Calm Calm - N/A   Overcast
9:15 PM 49.5 °F - 41.0 °F 73% 30.39 in 10.0 mi East 3.5 mph - N/A   Overcast
9:35 PM 49.5 °F - 41.5 °F 74% 30.39 in 10.0 mi ESE 5.8 mph - N/A   Overcast
9:55 PM 49.6 °F - 41.5 °F 74% 30.39 in 10.0 mi East 4.6 mph - N/A   Overcast
10:15 PM 50.0 °F - 41.9 °F 74% 30.38 in 10.0 mi East 4.6 mph - N/A   Overcast
10:35 PM 50.0 °F - 42.1 °F 74% 30.37 in 10.0 mi East 3.5 mph - N/A   Overcast
10:55 PM 50.0 °F - 42.4 °F 75% 30.36 in 10.0 mi East 3.5 mph - N/A   Overcast
11:15 PM 50.0 °F - 43.0 °F 77% 30.36 in 10.0 mi ESE 4.6 mph - N/A   Overcast
11:35 PM 50.7 °F - 43.7 °F 77% 30.36 in 10.0 mi SE 8.1 mph - N/A   Overcast
11:55 PM 50.2 °F - 43.0 °F 76% 30.36 in 10.0 mi SSE 4.6 mph - N/A   Overcast